Hourly Data Report for January 15, 2020

SATURNA ISLAND CS
BRITISH COLUMBIA
Current Station Operator: ECCC - MSC

48°47'02.067" N
123°02'41.082" W
24.40 m
1017101
71473
WEZ

Download Data

Hourly Data (January 2020)
Hourly Data Report for January 15, 2020
TIME
LST
Temp Definition
°C
Dew Point Definition
°C
Rel Hum Definition
%
Precip. Amount Definition
mm

Wind Dir Definition
10's deg

Wind Spd Definition
km/h
Visibility Definition
km
Stn Press Definition
kPa
Hmdx Definition


Wind Chill Definition


Weather Definition


00:00 -5.7 -6.4 95   7 41   101.14   -15 LegendNANA
01:00 -5.5 -6.1 96   6 37   101.12   -14 LegendNANA
02:00 -5.2 -5.8 96   7 38   101.06   -14 LegendNANA
03:00 -5.1 -5.7 96   7 35   101.05   -14 LegendNANA
04:00 -4.9 -5.4 96   6 28   100.98   -13 LegendNANA
05:00 -4.6 -5.1 96   7 26   100.91   -12 LegendNANA
06:00 -4.2 -4.7 96   6 27   100.86   -12 LegendNANA
07:00 -3.6 -4.0 97   3 20   100.83   -10 LegendNANA
08:00 -3.0 -3.4 97   7 36   100.73   -11 LegendNANA
09:00 -2.8 -3.2 97   8 45   100.65   -12 LegendNANA
10:00 -2.9 -3.3 97   7 45   100.57   -12 LegendNANA
11:00 -3.5 -4.0 96   8 52   100.44   -13 LegendNANA
12:00 -3.8 -4.4 96   8 52   100.29   -13 LegendNANA
13:00 -3.8 -4.6 94   8 54   100.06   -14 LegendNANA
14:00 -3.7 -4.7 93   8 57   99.83   -14 LegendNANA
15:00 -2.6 -4.1 90   8 62   99.70   -12 LegendNANA
16:00 -3.1 -5.2 85   7 58   99.51   -13 LegendNANA
17:00 -1.9 -3.6 88   8 51   99.41   -11 LegendNANA
18:00 -1.6 -2.9 91   8 58   99.27   -11 LegendNANA
19:00 -1.1 -2.1 93   8 59   99.19   -10 LegendNANA
20:00 -0.4 -1.9 90   9 55   99.06   -9 LegendNANA
21:00 0.1 -1.6 88   9 56   98.98     LegendNANA
22:00 3.9 1.9 86 0.0 9 50   98.94     LegendNANA
23:00 6.5 0.9 67 1.0 17 71   98.89     LegendNANA

Notes on Data Quality.

Legend

  • E = Estimated
  • M = Missing
  • NA = Not Available*
  • [empty] = Indicates an unobserved value
Date modified: